Regional Weather Roundup
Issued by NWS Kansas City/Pleasant Hill, MO

Home | Current Version | Previous Version | Graphics & Text | Print | Product List | Glossary Off
Versions: 1 2 3 4 5 6 7 8 9 10 11 12 13 14 15 16 17 18 19 20 21 22 23 24 25 26 27 28 29 30 31 32 33 34 35 36 37 38 39 40 41 42 43 44 45 46 47 48 49 50

000
ASUS43 KEAX 242104
RWREAX

WEATHER ROUNDUP FOR EASTERN KANSAS AND NORTHWEST MISSOURI
NATIONAL WEATHER SERVICE KANSAS CITY/PLEASANT HILL MO
400 PM CDT FRI OCT 24 2014

KSZ040-057-103>105-MOZ028-029-037-043-242200-
...KANSAS CITY METROPOLITAN AREA...

CITY           SKY/WX    TMP DP  RH WIND       PRES   REMARKS
K.C. INTL      PTSUNNY   74  64  71 SW13      29.95F
K.C. DOWNTOWN  PTSUNNY   77  62  59 SW13      29.94F
LEES SUMMIT    PTSUNNY   75  62  64 SW9G21    29.97F
OLATHE - IXD   CLOUDY    75  63  66 S12       29.98F
OLATHE - OJC   PTSUNNY   75  63  66 SW12      29.97S
LAWRENCE       CLOUDY    75  62  64 SW10      29.95F

$$

MOZ001>008-011>017-020>025-030>033-038>040-044>046-053-054-242200-
...NORTHERN AND CENTRAL MISSOURI...

CITY           SKY/WX    TMP DP  RH WIND       PRES   REMARKS
ST. JOSEPH     PTSUNNY   77  63  61 S15       29.91F
MOSBY          CLOUDY    77  61  57 S7        29.95F
WHITEMAN AFB   MOSUNNY   74  62  65 SW14      29.98F
CLINTON        PTSUNNY   75  63  64 SW8       30.00F HAZE
SEDALIA        MOSUNNY   74  60  61 SW14      29.99F
WARSAW         NOT AVBL
MARSHALL       MOSUNNY   77  63  61 SW9       29.97F
CHILLICOTHE      N/A     75  62  64 S10G18    29.94F
MOBERLY        PTSUNNY   73  57  56 S12       29.97F
KIRKSVILLE     PTSUNNY   71  62  73 SW12      29.95F

$$

MOZ041-047>049-056>058-063>065-088>090-097-242200-
...EASTERN AND SOUTHERN MISSOURI...

CITY           SKY/WX    TMP DP  RH WIND       PRES   REMARKS
ST. LOUIS INTL PTSUNNY   74  52  46 SW8       30.03F
SPIRIT OF STL  SUNNY     74  49  41 S7        30.01F
COLUMBIA       PTSUNNY   72  60  66 S12       30.00F
JEFFERSON CITY MOSUNNY   74  59  59 S9        29.99F
MEXICO         PTSUNNY   73  64  73 S14       29.98
ROLLA          MOSUNNY   70  59  68 S9        30.03F
LEBANON        MOSUNNY   73  59  60 SW6       30.06R
OSAGE BEACH    CLOUDY    73  57  56 S6        30.02S
SPRINGFIELD    PTSUNNY   74  60  61 SW12      30.05S
JOPLIN         PTSUNNY   74  61  63 SW10      30.04F
WEST PLAINS    MOSUNNY   71  57  61 SW5       30.08F

$$

IAZ060-094-KSZ022-034>040-054-083-096-NEZ052-066-093-242200-
...KANSAS...SOUTHEAST NEBRASKA AND IOWA...

CITY           SKY/WX    TMP DP  RH WIND       PRES   REMARKS
TOPEKA         CLOUDY    79  64  60 SW13      29.94F
MANHATTAN      CLOUDY    79  63  57 SW13      29.93F
EMPORIA        PTSUNNY   79  60  52 SW12      29.98F
CHANUTE        CLOUDY    73  62  68 SW10      30.01F
WICHITA        MOSUNNY   83  61  47 SW10      29.99F
OMAHA          CLOUDY    75  58  55 CALM      29.90S
LINCOLN        PTSUNNY   74  57  55 SW6       29.91S
FALLS CITY     PTSUNNY   79  63  57 SW15      29.89F
LAMONI         PTSUNNY   68  62  81 S10       29.91S
DES MOINES     CLOUDY    67  61  81 SW12      29.89S

$$




USA.gov is the U.S. government's official web portal to all federal, state and local government web resources and services.